This is the latest recevied weather packets stored in our database for station/object OK2JF-6. If no packets are shown the sender has not sent any weather packets the latest 10 day(s).
| Time | Temp. | Humidity | Pressure | Rain* | Wind** | Luminosity | Snow |
|---|---|---|---|---|---|---|---|
| 1777978383 | 25.56° C | 38% | 1080.1 hPa | 0 mm | - | 499 W/m² | - |
| 1777977963 | 25° C | 38% | 1080.1 hPa | 0 mm | - | 491 W/m² | - |
| 1777977858 | 25° C | 38% | 1080.3 hPa | 0 mm | - | 502 W/m² | - |
| 1777977783 | 25° C | 39% | 1080.3 hPa | 0 mm | - | 502 W/m² | - |
| 1777977603 | 25° C | 39% | 1080.1 hPa | 0 mm | - | 502 W/m² | - |
| 1777977363 | 25.56° C | 37% | 1080.3 hPa | 0 mm | - | 502 W/m² | - |
| 1777977303 | 25.56° C | 38% | 1080.2 hPa | 0 mm | - | 502 W/m² | - |
| 1777976777 | 25° C | 39% | 1080.2 hPa | 0 mm | - | 501 W/m² | - |
| 1777976403 | 24.44° C | 39% | 1080.3 hPa | 0 mm | - | 502 W/m² | - |
| 1777975563 | 24.44° C | 38% | 1080.4 hPa | 0 mm | - | 495 W/m² | - |
| 1777975517 | 24.44° C | 38% | 1080.4 hPa | 0 mm | - | 495 W/m² | - |
| 1777975083 | 24.44° C | 39% | 1080.5 hPa | 0 mm | - | 380 W/m² | - |
| 1777974618 | 25° C | 39% | 1080.4 hPa | 0 mm | - | 491 W/m² | - |
| 1777974543 | 24.44° C | 40% | 1080.1 hPa | 0 mm | - | 490 W/m² | - |
| 1777973523 | 24.44° C | 38% | 1080.6 hPa | 0 mm | - | 163 W/m² | - |
| 1777973463 | 24.44° C | 38% | 1080.5 hPa | 0 mm | - | 387 W/m² | - |
| 1777972563 | 24.44° C | 39% | 1080.4 hPa | 0 mm | - | 447 W/m² | - |
| 1777972503 | 24.44° C | 39% | 1080.6 hPa | 0 mm | - | 426 W/m² | - |
| 1777972443 | 24.44° C | 38% | 1080.3 hPa | 0 mm | - | 286 W/m² | - |
| 1777972083 | 24.44° C | 38% | 1080.7 hPa | 0 mm | - | 463 W/m² | - |
| 1777971783 | 23.89° C | 39% | 1080.9 hPa | 0 mm | - | 457 W/m² | - |
| 1777971603 | 23.89° C | 39% | 1080.5 hPa | 0 mm | - | 452 W/m² | - |
| 1777971423 | 23.33° C | 39% | 1080.4 hPa | 0 mm | - | 448 W/m² | - |
| 1777971139 | 23.33° C | 39% | 1080.6 hPa | 0 mm | - | 444 W/m² | - |
| 1777970958 | 23.89° C | 38% | 1080.5 hPa | 0 mm | - | 440 W/m² | - |
* Rain latest hour (hover to see other rain measurements)
** Current wind speed in m/s (hover to see current wind gust speed)